Wind_Speed
23 22 21 21 21 21 22 22 23 24 25 25 26 26 26 26 27 27 27 27 27 28 28 28 27 27 28 29 30 30 31 32 33 33 33 32 32 31 31 31 32 32 33 34 34 34 35 36 37 39 41 43 43 41 37 36 37 37 36 35 34 35 36 37 36 36 36 34 32
23 23 23 23 23 23 23 24 24 25 26 27 27 27 27 27 28 28 28 28 28 29 29 29 29 29 29 30 31 32 33 34 34 34 34 34 33 32 31 30 30 31 33 34 34 34 35 36 37 37 39 41 43 42 38 35 36 36 36 35 34 33 34 36 37 37 37 36 34
24 24 24 24 24 24 24 24 25 26 27 28 28 28 28 28 28 29 29 29 30 30 29 29 29 30 31 32 32 33 34 35 35 35 35 35 35 34 32 29 28 30 32 34 34 34 34 35 36 37 37 39 42 44 42 37 35 35 35 34 33 32 32 34 36 37 37 36 34
25 25 25 25 26 27 27 26 27 28 29 28 29 30 30 30 30 30 30 30 31 31 31 31 31 31 32 32 33 33 34 35 35 36 36 36 36 35 33 30 28 28 30 32 34 35 35 35 35 36 37 38 42 45 43 37 35 35 34 34 33 32 32 33 34 34 35 34 33
26 26 26 26 27 28 29 29 30 30 30 30 29 30 31 31 31 31 32 31 32 32 33 34 33 33 33 33 34 34 34 34 35 36 37 37 36 35 33 31 28 28 29 31 34 36 36 35 34 35 36 38 40 42 41 37 35 34 33 33 33 33 32 32 32 32 33 34 32
26 26 27 27 28 29 29 30 31 32 32 31 31 32 32 32 32 32 33 33 34 35 36 36 35 35 35 34 34 35 35 35 36 36 36 36 36 35 33 31 29 27 27 29 32 34 36 36 35 34 35 37 40 43 42 36 35 34 32 30 31 31 31 31 30 29 30 33 32
27 28 28 29 29 30 30 31 32 32 32 32 33 34 35 35 35 35 36 36 36 35 35 35 35 35 35 36 35 35 35 35 35 36 35 35 34 33 32 31 29 28 26 27 28 31 34 36 35 34 34 37 40 42 41 36 34 32 30 28 28 29 29 29 28 28 29 32 32
28 29 30 30 30 31 32 33 33 33 32 32 33 35 36 37 38 38 38 38 37 36 35 35 35 36 37 37 37 36 36 35 35 34 33 33 33 32 31 30 28 27 26 25 25 27 30 32 34 34 34 37 40 40 37 35 34 31 29 27 26 27 28 29 28 28 29 31 32
29 29 30 30 31 31 32 33 33 34 34 34 35 36 37 38 39 39 39 38 38 38 36 35 35 36 37 37 37 37 37 36 36 35 33 32 31 30 30 29 28 26 25 24 24 25 27 29 31 32 35 39 42 40 35 33 33 32 29 28 26 26 28 29 29 28 28 30 31
29 30 30 30 31 31 32 33 34 34 35 36 37 38 39 40 40 39 39 38 38 37 36 36 35 35 36 36 37 38 38 37 37 36 34 32 31 30 29 28 28 27 25 25 24 24 25 27 29 31 35 40 45 42 36 32 33 33 31 29 27 26 27 28 28 27 27 28 30
30 30 31 31 31 32 32 32 32 32 32 33 35 36 37 38 39 38 38 37 36 36 36 36 36 35 35 35 36 37 37 36 36 34 33 33 31 30 29 29 28 27 26 26 25 23 23 24 27 30 35 40 45 44 37 31 33 35 33 31 29 27 26 26 26 27 27 28 30
30 30 31 31 31 32 31 30 29 29 29 29 30 31 31 32 34 34 35 35 34 35 36 36 35 35 35 35 35 36 36 36 35 34 33 31 30 29 29 28 28 28 27 26 25 23 23 24 26 29 33 38 43 42 37 31 33 35 35 34 32 30 27 27 27 28 28 29 30
29 30 30 30 30 30 29 29 27 27 27 27 28 28 28 28 29 30 31 32 33 33 34 34 35 35 35 34 35 34 34 34 34 33 32 30 29 28 28 27 28 28 27 26 25 24 23 23 26 29 32 36 41 41 37 31 32 34 35 34 33 32 30 28 29 29 29 29 29
29 29 29 29 29 28 27 27 26 25 25 26 27 27 27 27 28 29 30 30 32 33 33 33 33 33 34 34 34 33 33 32 32 31 30 29 28 27 27 27 27 27 27 26 25 24 23 23 25 28 31 35 40 41 37 30 30 33 34 34 33 32 31 30 30 30 29 29 29
28 28 28 27 27 26 26 26 25 25 25 26 27 27 28 27 28 29 29 30 31 32 31 31 31 32 33 33 33 32 31 30 30 29 29 28 27 26 26 26 26 26 26 25 24 24 23 24 25 28 31 35 38 39 36 29 29 31 33 34 34 33 33 32 32 32 31 30 29
27 26 26 26 25 25 25 25 25 25 25 26 28 29 29 29 29 29 29 29 29 29 28 28 28 29 30 31 31 31 30 29 28 28 27 27 26 25 25 25 26 26 26 25 23 23 23 25 26 29 32 35 36 37 34 29 28 29 31 33 34 34 34 34 33 33 32 32 31
26 25 25 25 25 25 26 26 26 26 27 28 29 30 31 31 30 29 28 27 26 25 25 26 26 26 27 28 29 29 28 27 27 26 26 25 25 24 24 25 25 26 25 24 23 23 24 26 28 30 33 35 35 35 33 30 29 29 30 32 33 34 35 35 34 33 33 32 32
25 25 25 25 25 26 27 27 27 28 28 30 30 31 32 31 29 27 26 25 24 24 24 24 24 24 24 25 26 27 26 26 26 25 25 24 24 24 25 26 26 26 25 23 23 24 26 28 29 31 33 34 35 34 32 31 31 31 31 32 33 34 34 35 35 34 34 33 33
25 25 25 25 26 26 27 28 29 29 29 30 30 31 32 31 28 25 24 23 23 23 23 22 22 22 23 24 24 25 25 25 25 25 24 24 25 26 26 27 27 26 25 24 24 26 28 29 30 32 33 34 34 33 32 31 31 32 33 33 34 34 34 35 35 34 34 33 34
25 25 25 26 26 27 28 29 29 29 30 30 30 31 32 31 26 23 22 23 23 23 23 22 22 22 22 24 24 23 23 23 23 23 24 25 27 28 28 28 27 26 25 25 26 28 30 31 31 31 32 33 34 33 31 31 31 32 34 34 35 35 34 35 35 34 33 33 34
25 25 26 27 27 28 28 29 29 29 29 29 30 30 30 28 22 21 23 23 23 23 23 23 22 23 23 24 24 24 23 23 23 24 26 28 30 30 29 28 26 25 25 26 29 30 31 32 32 32 32 33 33 33 32 30 30 31 33 33 34 35 35 35 34 34 33 33 34
25 26 26 27 27 28 28 28 28 28 28 28 29 29 28 26 19 19 22 23 23 23 23 23 24 24 24 25 25 25 24 24 24 25 27 29 30 29 28 26 25 25 27 30 31 32 32 32 32 32 32 32 33 33 32 30 29 30 31 31 32 33 33 34 33 33 33 34 35
25 26 26 27 27 27 28 28 27 27 27 26 27 28 28 25 19 16 20 22 23 24 24 23 24 24 25 25 26 26 25 25 25 26 27 26 24 24 24 24 25 28 31 32 32 31 31 31 32 32 32 31 32 32 31 30 29 29 29 29 29 30 31 32 32 32 32 33 34
25 26 26 26 26 26 27 27 26 26 25 25 26 26 27 26 21 14 16 22 24 25 25 24 24 24 25 25 26 26 25 25 25 26 25 22 20 20 22 25 28 31 32 31 30 30 29 29 29 30 31 31 31 31 31 30 29 29 28 28 29 29 30 30 31 31 31 31 31
26 26 26 26 26 26 26 25 25 25 25 25 25 25 25 25 24 17 12 18 23 25 26 26 25 25 24 25 25 25 25 25 25 25 23 21 20 21 24 27 29 30 29 28 29 29 29 27 27 28 29 30 30 30 30 30 30 30 29 29 29 29 28 29 29 30 30 29 30
25 25 25 25 24 24 24 24 24 24 24 24 24 24 23 23 23 20 13 13 19 23 24 25 25 26 26 25 25 25 25 25 25 24 23 22 22 23 25 26 26 25 24 25 27 28 29 26 26 27 28 28 28 28 28 29 30 30 30 29 29 28 27 27 27 28 28 28 28
24 24 24 24 23 23 23 23 24 24 24 24 24 23 23 22 22 20 13 9 14 18 18 20 22 25 27 27 26 26 26 25 24 24 24 24 24 25 24 23 22 21 21 22 24 27 29 27 27 27 27 27 27 28 28 29 30 30 30 29 28 28 27 26 26 26 27 27 27
24 23 23 23 22 22 22 23 23 23 23 23 23 23 22 21 20 18 11 1 6 8 8 10 14 19 23 24 25 26 26 26 25 26 26 26 24 22 21 20 20 20 20 20 22 25 28 28 27 27 27 26 27 28 28 28 29 29 28 27 27 27 27 27 27 27 26 25 25
23 23 22 21 21 21 22 22 22 22 22 22 22 21 21 20 20 18 15 12 9 8 6 5 6 9 13 16 19 21 22 21 22 23 22 21 20 19 19 19 19 19 19 19 20 24 27 28 28 27 27 26 26 26 26 27 28 28 28 27 27 27 29 29 29 28 26 25 24
23 23 22 21 20 21 21 22 21 21 21 21 21 21 20 21 20 20 19 18 17 16 14 12 11 10 9 9 12 13 13 13 14 15 16 17 17 17 16 16 17 17 17 18 20 23 25 26 27 27 26 25 25 25 26 26 27 29 29 28 28 29 30 30 29 27 26 24 23
23 22 21 20 20 20 21 21 21 20 20 20 21 21 21 21 21 20 19 19 19 19 18 17 16 14 12 11 10 11 11 11 12 12 13 15 15 15 14 14 14 15 15 17 21 23 24 24 25 26 25 24 24 25 25 25 26 28 29 29 29 29 29 28 27 26 25 24 24
24 22 21 20 20 20 20 20 20 20 20 20 21 21 21 21 20 20 19 19 19 20 20 20 19 18 17 15 14 13 12 11 11 10 11 11 12 12 12 11 12 12 14 17 20 22 22 22 23 24 24 22 22 22 23 23 24 25 27 27 26 25 24 23 23 23 24 25 26
24 22 21 20 20 20 20 20 20 20 20 20 21 21 21 21 21 20 20 20 20 21 22 22 22 21 21 20 19 17 16 14 13 11 10 10 10 10 10 9 10 11 13 16 19 20 20 21 22 22 22 22 21 20 19 20 22 23 23 23 22 21 20 20 20 21 23 24 25
23 22 20 20 20 20 20 20 20 20 20 21 21 21 21 21 21 21 20 20 20 21 22 23 23 23 23 23 22 21 20 19 18 16 14 12 12 12 11 10 9 10 13 16 18 20 20 21 21 22 23 23 22 20 19 19 21 21 21 20 20 19 18 18 19 20 21 22 22
23 22 21 20 20 20 20 20 20 20 21 21 22 22 22 22 22 21 20 19 20 22 23 24 24 25 25 25 25 24 24 24 23 21 19 17 16 15 14 13 12 11 12 15 18 20 21 21 22 24 25 25 23 21 20 20 20 20 19 19 19 18 18 18 18 20 21 21 21
24 22 21 20 20 20 20 20 20 21 21 22 22 22 22 22 22 21 20 19 21 22 24 25 26 26 27 27 27 27 26 26 25 24 23 21 21 20 19 18 16 14 14 15 18 20 21 23 24 25 26 25 23 21 21 20 20 18 17 17 16 15 15 15 17 19 21 22 23
24 23 22 21 20 20 20 20 21 21 22 22 21 21 21 21 22 21 20 20 21 23 24 26 26 27 27 27 27 27 27 27 26 26 25 24 23 23 22 21 19 18 17 17 19 21 22 24 25 27 26 25 23 21 20 19 18 16 15 14 12 11 11 12 14 17 19 21 23
24 23 22 21 21 20 21 21 21 21 21 21 21 22 22 22 22 22 21 21 21 22 24 25 26 26 26 27 28 29 29 29 29 28 27 26 25 24 23 22 20 18 18 20 21 22 23 24 25 25 25 23 22 21 19 18 17 16 14 13 11 9 8 9 10 12 15 18 20
25 24 23 22 21 21 21 21 21 21 21 21 22 22 23 23 22 22 22 21 21 22 23 25 25 25 25 27 29 30 31 31 31 30 29 28 27 26 25 24 22 19 18 19 20 21 21 21 21 21 21 20 20 19 19 18 18 17 16 14 13 11 8 6 6 7 9 12 15
25 25 24 23 23 22 22 22 21 21 21 21 22 23 23 23 23 22 22 22 23 23 24 25 25 25 26 28 29 30 31 31 31 31 30 30 29 28 28 26 24 22 19 18 19 19 19 18 18 18 17 17 17 18 18 19 19 18 17 16 15 14 12 10 8 5 4 4 8
26 26 25 24 24 23 23 22 22 22 22 22 22 22 23 23 24 24 24 24 24 24 25 25 26 27 28 29 30 30 31 31 31 31 31 31 30 30 29 28 26 24 22 20 19 19 19 18 17 17 17 17 17 18 18 19 20 20 19 18 17 17 17 16 14 12 10 7 4
Wind_Direction
286 283 281 279 277 275 274 272 269 266 264 262 260 258 256 255 253 252 251 250 248 247 247 247 246 245 244 243 242 242 242 244 245 246 247 248 249 251 253 253 250 246 243 240 238 237 236 235 233 230 229 228 229 229 228 224 219 214 209 204 203 204 205 204 203 202 202 201 199
287 284 282 279 277 275 273 270 267 263 260 258 257 256 254 253 252 251 250 249 247 246 246 247 246 245 244 243 242 242 242 242 244 245 246 247 248 250 253 255 252 247 242 239 237 236 235 234 232 230 228 227 227 228 229 226 220 215 209 204 202 202 204 204 203 202 200 200 198
287 286 283 280 276 273 270 267 264 261 259 257 256 255 253 252 251 251 250 249 248 246 245 246 246 245 244 243 243 242 242 242 243 244 245 246 247 249 252 255 255 251 244 238 235 234 234 233 231 229 227 226 226 227 228 226 221 216 210 205 201 201 202 204 202 200 199 198 196
288 286 283 280 275 271 268 266 265 263 262 259 257 256 254 252 252 251 250 249 248 246 245 244 245 244 244 243 243 242 241 241 242 244 245 246 247 248 250 253 256 256 251 243 237 234 233 232 230 228 226 224 224 226 226 224 220 215 210 205 202 201 203 204 202 199 197 196 195
288 286 283 279 276 272 270 268 266 265 264 262 259 257 255 253 251 250 250 248 246 245 243 242 242 243 243 243 242 242 241 241 242 243 244 246 247 248 249 252 254 257 256 252 244 237 232 230 228 227 225 224 223 224 225 222 216 211 207 204 204 204 205 206 203 200 197 194 194
288 286 283 281 279 276 273 271 269 267 265 263 260 257 256 254 251 249 248 246 245 244 242 241 240 240 240 240 240 240 240 240 240 241 242 244 245 247 248 250 252 254 255 255 252 244 236 230 227 226 225 223 222 223 223 218 211 205 201 200 203 205 206 206 204 200 195 191 191
289 287 284 282 281 279 277 275 273 269 266 263 259 256 254 253 251 249 247 246 245 243 241 239 237 236 236 237 237 237 238 238 239 240 241 242 243 245 246 248 249 250 252 253 253 250 244 235 229 226 225 223 222 223 221 214 207 201 197 195 201 205 205 202 199 195 191 188 188
290 288 286 284 283 282 281 279 275 272 268 264 260 256 254 252 250 249 248 246 244 241 239 237 235 233 233 234 235 235 236 237 238 238 239 240 241 243 244 245 247 249 250 251 252 253 250 243 233 227 224 222 222 223 219 209 202 196 192 193 199 201 201 199 197 193 189 187 187
290 289 288 287 286 285 284 282 278 274 269 265 261 258 255 253 250 248 247 245 244 242 239 237 234 233 232 231 232 233 234 235 237 237 238 238 239 241 242 244 246 249 251 251 251 253 253 249 241 232 224 220 222 223 219 206 196 191 189 193 196 198 197 196 196 193 189 186 186
291 290 290 289 289 288 287 285 282 277 272 267 264 260 257 254 251 248 246 245 244 242 238 236 234 231 229 228 229 231 233 234 235 237 237 238 238 239 241 243 245 248 251 252 252 252 253 251 246 236 226 221 222 223 220 205 192 187 188 193 196 195 193 194 194 192 188 187 187
292 292 291 290 290 290 289 288 285 282 279 273 269 264 259 255 251 249 247 245 243 240 238 235 233 230 228 226 227 228 229 231 232 234 235 236 237 238 240 242 245 247 249 251 251 251 250 249 246 238 229 222 222 222 218 203 189 184 187 192 195 195 192 191 190 189 188 188 189
294 294 293 292 292 292 291 290 289 288 287 284 279 274 267 259 254 251 248 245 241 239 238 235 231 228 227 226 227 227 227 228 230 231 233 234 235 237 239 241 244 246 248 249 249 248 248 246 243 238 231 224 222 221 217 202 187 183 186 190 195 198 198 196 193 192 190 190 190
296 295 294 294 294 293 293 292 292 292 292 292 290 286 280 271 263 257 252 247 242 239 237 234 230 227 225 225 225 225 225 226 227 228 230 231 233 235 238 240 243 244 246 246 245 245 245 244 242 238 232 225 221 220 216 203 187 183 185 188 192 197 200 200 197 195 193 192 192
297 296 295 295 295 295 294 294 295 295 296 297 296 294 289 281 273 265 258 251 245 240 236 232 229 226 225 224 223 223 223 223 224 225 227 229 231 233 236 239 241 242 243 243 242 242 242 243 242 238 231 224 220 218 216 206 190 184 185 187 189 194 199 201 200 198 196 195 194
298 297 297 297 297 297 298 298 298 298 299 300 300 299 296 289 281 272 263 254 246 240 235 229 225 224 223 222 221 220 220 220 221 222 224 227 229 231 234 237 240 240 240 240 239 239 241 243 242 237 230 223 219 218 215 206 192 185 184 186 187 191 195 199 200 199 198 197 195
300 300 300 300 301 301 302 302 301 300 301 301 304 304 301 295 287 276 265 253 245 238 232 227 224 222 221 219 218 216 216 217 218 220 223 225 227 230 233 236 239 240 239 238 237 238 240 242 241 235 228 222 219 217 212 203 192 185 182 184 185 187 191 195 197 197 197 195 193
303 303 304 304 305 305 305 304 303 302 302 303 305 306 304 298 289 276 262 249 240 234 230 227 223 220 216 215 213 212 212 214 216 219 221 224 227 230 233 236 239 240 239 237 235 236 238 239 237 231 226 221 219 215 210 202 193 187 184 184 184 185 188 191 193 193 193 192 191
306 307 308 308 309 309 308 306 305 304 304 305 307 308 307 302 289 272 255 242 233 229 227 225 221 216 212 209 208 209 209 212 215 219 223 226 229 232 235 238 240 240 239 237 235 235 235 234 231 227 223 220 218 214 208 201 194 190 188 187 185 186 187 188 190 190 190 190 191
310 310 311 311 311 311 309 308 307 306 306 307 308 310 310 304 288 267 246 234 228 226 224 221 216 212 208 206 205 206 208 211 215 220 224 228 231 234 235 237 238 238 237 236 235 235 234 230 226 222 219 218 216 212 205 199 192 189 188 188 187 187 188 188 188 189 190 191 192
312 313 313 313 313 312 310 309 308 307 308 309 309 311 311 306 287 260 237 226 225 224 222 218 212 208 205 204 204 205 207 211 215 220 225 228 230 232 232 233 234 234 235 235 235 234 232 227 221 217 216 215 214 210 205 198 191 187 186 187 187 188 189 189 190 191 192 195 196
315 315 314 314 313 312 311 310 309 309 309 310 310 312 313 309 287 254 232 224 222 222 220 216 211 207 204 204 204 205 208 211 215 220 224 226 226 227 227 228 229 230 232 233 233 231 227 222 217 214 213 212 210 207 203 197 190 185 183 184 186 188 189 191 192 193 195 198 201
316 316 315 314 313 312 311 311 310 310 310 311 313 314 316 314 290 254 232 224 220 218 218 216 212 208 206 204 205 206 208 211 215 221 225 225 223 222 222 224 225 227 229 230 227 223 219 215 213 212 210 208 205 202 197 191 184 180 180 181 184 186 189 192 194 196 198 202 204
317 316 315 314 314 314 313 313 312 312 313 314 316 318 319 319 303 263 234 223 217 216 216 215 213 211 209 207 206 206 208 211 217 224 229 229 225 222 222 224 226 227 227 224 217 211 208 207 208 208 206 203 200 196 191 184 177 175 176 177 179 182 185 189 192 196 199 203 204
318 317 317 316 316 316 316 315 315 315 316 318 320 321 321 321 317 287 238 220 216 215 215 214 213 213 212 210 209 208 209 212 218 226 232 235 232 229 229 230 229 226 221 214 206 201 200 201 201 202 201 199 196 192 186 178 174 173 173 174 175 177 181 185 189 193 197 200 202
319 319 319 318 318 318 319 319 319 319 320 322 324 324 323 323 322 311 263 219 213 213 214 213 213 213 212 211 211 210 211 214 218 224 230 233 234 234 234 231 225 217 209 203 199 198 198 198 197 196 196 196 194 190 184 178 175 174 174 174 175 176 179 182 187 191 194 197 198
322 321 321 322 322 322 322 322 323 324 326 328 329 328 326 324 324 318 295 229 210 208 210 211 210 211 211 210 210 211 212 215 218 222 225 228 231 234 232 224 213 203 198 197 198 199 199 198 195 193 192 192 190 186 182 179 179 178 178 178 178 180 182 185 189 193 195 196 198
325 324 325 326 327 327 327 328 329 330 332 333 333 332 331 330 328 323 307 241 206 201 204 206 207 207 208 208 208 210 213 216 219 221 222 225 227 226 220 209 200 195 195 197 199 200 200 200 196 192 190 188 185 182 181 181 183 182 181 181 183 185 188 191 195 197 198 199 200
329 328 329 331 332 332 333 335 335 336 337 337 337 338 338 340 340 340 339 301 178 181 187 191 198 201 202 202 203 205 209 212 215 218 220 221 218 211 201 194 193 194 195 197 198 200 201 201 198 194 189 184 181 181 181 183 184 184 184 185 188 191 195 199 201 202 201 201 202
333 334 335 336 337 338 339 340 340 340 340 342 344 347 351 356 1 9 22 44 66 75 80 101 142 169 182 187 191 194 196 199 202 205 205 202 195 187 183 185 189 192 194 196 198 199 200 200 198 195 190 185 181 180 181 182 183 184 185 188 191 195 198 201 202 202 201 202 203
338 339 340 342 343 344 344 344 343 343 345 349 354 360 5 10 15 23 32 41 51 59 67 78 91 103 120 145 163 166 164 161 166 170 169 166 162 163 167 175 182 188 192 196 198 199 198 197 194 191 188 185 182 180 179 179 179 180 182 186 190 194 196 198 197 198 199 202 204
343 344 345 347 349 349 349 349 349 350 354 359 5 10 14 18 20 24 30 38 49 59 68 75 78 78 82 97 114 123 127 130 137 144 148 150 150 150 153 161 171 181 188 195 198 199 197 192 188 185 184 181 178 176 175 174 174 175 177 182 186 189 191 192 193 194 197 202 205
347 348 350 352 354 354 354 355 356 358 3 8 13 16 18 21 22 26 31 39 48 57 63 66 67 65 64 70 77 86 95 106 117 130 141 147 148 146 147 152 163 175 186 192 197 198 196 190 186 185 186 186 182 179 176 174 173 172 175 178 182 185 188 189 191 193 198 204 207
351 352 354 357 359 360 0 1 3 6 10 15 17 19 20 22 25 28 32 39 46 53 58 59 59 57 56 58 61 64 69 76 86 100 117 133 140 143 144 149 161 174 185 191 195 196 194 189 188 190 194 196 194 189 183 179 175 173 174 176 179 182 185 187 189 193 198 204 207
354 355 358 1 4 5 6 8 10 13 17 19 20 21 22 23 24 26 30 37 45 52 57 59 59 58 58 59 59 60 62 66 74 83 96 111 123 130 132 138 152 170 183 189 191 191 190 189 191 195 198 200 198 192 184 177 176 174 172 172 174 177 181 185 189 193 197 201 203
357 359 1 5 8 10 11 13 16 19 21 22 22 22 23 25 25 26 30 38 47 54 57 59 61 63 63 63 62 61 61 63 69 77 86 97 108 113 116 120 133 154 174 184 186 186 187 188 192 195 197 196 191 185 177 172 172 169 165 166 170 175 181 187 192 196 199 200 201
1 3 5 8 12 14 16 18 21 24 25 26 24 23 24 27 28 29 33 41 49 54 57 59 61 62 62 61 60 59 60 62 67 72 79 87 94 98 101 106 116 132 154 172 179 182 182 184 187 189 188 184 177 170 165 162 159 154 153 158 163 169 178 187 196 201 204 204 204
5 6 8 11 14 17 20 23 26 27 28 28 27 26 27 28 30 32 36 42 49 54 57 58 58 57 58 59 59 60 61 64 68 70 73 78 83 87 91 96 103 117 134 152 166 173 176 177 178 178 175 168 159 153 149 145 140 137 137 142 146 155 170 187 200 207 211 212 211
8 9 11 14 17 20 23 26 28 30 30 30 30 30 31 33 33 34 37 43 49 54 57 58 56 56 59 62 63 63 64 65 68 70 70 71 75 79 83 86 91 104 121 136 148 159 167 171 172 171 165 155 147 142 138 132 127 124 123 122 124 132 152 178 197 210 218 222 221
11 13 15 17 20 22 25 28 30 32 33 33 34 35 36 37 36 37 40 45 51 55 58 59 58 59 61 64 65 65 64 64 66 68 69 69 72 76 79 80 82 91 107 123 134 144 154 163 168 168 162 151 143 137 133 128 121 117 114 112 111 111 118 139 169 196 215 225 229
14 15 17 20 22 24 26 29 31 33 35 37 38 39 39 40 40 41 44 48 52 57 60 61 61 61 63 64 65 64 63 63 63 65 67 69 72 75 77 77 78 84 94 108 120 130 139 149 158 164 163 153 144 138 132 126 118 111 105 103 102 98 96 99 108 121 149 204 225
18 18 20 21 23 25 27 29 31 34 37 39 41 42 43 44 45 45 47 49 52 56 59 62 62 63 64 64 64 63 62 61 61 63 66 68 70 71 73 74 76 79 85 95 106 116 125 133 144 153 157 153 146 140 134 126 115 107 101 98 97 94 90 88 88 89 89 91 120
Height
680 679 679 678 677 676 675 674 673 672 672 671 670 669 669 668 667 666 665 664 664 663 663 662 662 662 662 662 662 662 663 663 663 663 664 664 664 664 665 665 665 665 665 666 666 668 669 669 670 670 671 672 674 675 674 674 674 674 675 676 678 681 683 685 686 688 690 692 694
678 677 676 675 675 674 673 671 670 670 669 668 667 666 665 665 664 662 661 661 660 659 659 659 659 659 659 659 659 659 659 659 660 660 660 661 661 662 663 663 663 663 663 663 664 664 665 666 667 668 668 669 672 673 673 672 672 672 673 674 676 678 680 682 683 685 687 690 692
676 675 674 673 672 671 670 669 667 666 665 664 664 663 662 661 660 659 658 657 656 656 656 656 655 655 655 655 656 656 656 656 657 657 658 658 659 659 660 660 661 661 660 660 661 661 662 663 664 665 665 666 669 671 671 670 669 670 671 672 673 675 677 679 681 683 685 688 690
674 673 672 671 670 669 668 666 664 663 662 661 660 659 659 657 656 655 654 653 653 653 652 652 652 652 652 652 653 653 653 653 654 654 654 655 656 656 657 658 659 659 658 658 658 659 660 661 661 662 662 663 667 669 669 668 667 667 668 669 670 672 675 676 679 681 683 686 688
671 670 669 668 667 665 664 663 662 660 659 658 657 656 654 654 653 652 651 650 649 649 648 648 649 649 649 649 649 649 650 650 651 651 652 652 653 654 655 656 656 656 656 656 656 657 657 658 659 659 659 661 664 666 666 664 664 664 665 666 668 670 673 675 677 680 682 684 686
668 667 666 665 664 663 661 660 659 657 656 655 654 652 650 649 649 648 647 645 644 644 644 644 645 645 645 645 646 646 646 647 648 648 649 649 650 651 652 653 654 654 654 655 655 655 655 656 656 656 657 659 661 663 663 661 660 661 662 664 667 670 672 674 677 679 681 682 684
666 664 663 662 661 659 658 657 655 654 652 651 649 647 646 645 644 643 642 641 640 640 640 640 640 641 641 642 642 643 643 644 644 645 645 646 647 648 649 650 651 652 652 653 653 654 654 654 654 654 655 656 659 660 659 658 658 658 659 662 666 669 671 674 676 678 679 680 682
664 662 661 659 658 656 655 653 652 650 649 647 645 643 641 640 639 638 637 637 636 636 636 636 636 636 637 638 638 639 640 641 641 642 643 644 644 646 647 648 649 649 650 650 651 651 652 653 653 653 653 654 657 658 656 655 655 655 658 662 666 669 670 672 674 675 677 678 680
661 659 658 656 655 653 652 650 648 646 644 642 640 638 636 635 634 633 633 632 631 631 631 632 632 632 633 634 635 635 636 637 638 639 640 641 642 643 644 645 646 647 647 648 649 649 650 651 651 651 651 653 655 655 654 652 651 653 657 661 665 668 669 670 672 674 676 677 679
659 657 655 654 652 650 648 646 644 642 640 638 635 633 631 630 629 628 628 627 627 627 627 628 628 628 629 630 631 632 633 634 635 636 637 638 639 640 641 643 644 644 645 646 646 647 648 649 649 649 649 650 652 653 652 650 649 650 655 660 663 665 667 668 671 673 675 676 677
657 655 653 651 649 647 645 643 641 638 636 633 631 628 627 625 624 623 623 623 623 623 623 623 624 625 626 626 627 628 629 631 632 633 634 635 637 638 639 640 641 642 643 644 644 645 645 646 646 647 647 648 650 651 651 649 647 649 653 658 661 663 665 667 669 671 672 674 675
655 653 651 649 647 645 643 641 638 635 633 630 628 625 623 622 620 619 619 619 618 618 618 619 620 621 622 623 624 625 626 627 629 630 632 633 634 635 637 638 639 640 641 641 642 643 643 643 644 644 645 646 647 649 649 647 645 647 651 655 658 661 664 666 667 669 670 671 673
653 650 648 646 644 643 640 638 635 633 630 627 625 623 621 619 617 617 616 615 614 614 614 615 617 618 618 619 620 622 623 624 626 628 629 630 632 633 634 635 637 638 638 639 639 640 640 641 641 642 643 644 645 647 647 645 644 645 648 652 656 659 662 664 665 667 668 669 671
650 649 646 644 642 640 638 635 633 630 627 624 622 619 618 616 614 613 613 612 611 610 610 611 613 614 615 616 617 618 620 622 623 625 626 628 629 631 632 633 634 635 636 636 637 637 638 638 638 639 640 642 643 644 645 644 643 644 646 649 654 658 660 663 664 665 667 668 669
648 646 644 642 640 638 636 633 630 627 624 621 619 617 615 613 611 610 609 608 607 607 607 607 608 610 611 613 614 616 618 619 621 623 624 625 627 628 630 631 632 633 633 633 634 634 635 635 636 637 638 639 641 642 643 642 641 642 645 647 651 655 659 661 662 664 665 667 668
646 644 642 640 638 636 633 630 628 625 622 619 616 614 612 610 608 607 606 605 604 604 604 605 605 607 608 610 612 614 616 617 619 620 622 623 624 626 627 628 629 630 630 631 631 632 632 633 634 635 636 637 638 640 640 640 640 641 644 646 648 652 655 658 659 661 664 665 666
644 642 640 638 635 633 631 628 625 623 620 617 614 612 610 608 606 604 603 602 601 602 602 603 603 604 606 608 609 612 613 615 617 618 620 621 622 623 625 626 627 628 628 628 629 629 630 631 632 633 634 635 636 637 638 638 638 640 643 645 647 649 652 654 657 659 662 663 664
642 639 638 635 633 631 628 625 623 620 618 615 613 610 607 605 603 601 599 599 599 600 600 601 602 603 604 605 607 609 611 613 615 616 618 619 620 621 623 623 624 625 625 626 627 627 628 629 630 631 631 632 634 635 637 637 637 639 641 644 645 648 650 653 655 657 659 660 661
640 638 635 633 631 628 626 623 621 618 615 613 610 608 605 603 600 598 597 597 597 598 599 599 600 601 602 604 606 608 609 611 613 614 616 617 618 619 620 621 622 623 623 623 624 624 625 626 627 628 629 630 632 634 635 636 636 638 640 642 644 647 649 651 653 654 656 658 659
638 636 634 632 629 627 624 621 619 616 614 611 609 606 603 600 598 596 595 595 595 596 597 598 599 600 601 603 604 606 608 609 611 613 614 615 616 617 618 618 619 620 620 621 621 622 623 623 624 626 627 629 631 633 634 635 636 637 639 641 643 646 648 649 651 652 654 656 658
637 635 632 630 628 625 623 620 617 615 612 610 607 604 601 599 596 594 593 593 594 595 596 596 597 598 599 601 603 604 606 608 609 611 612 612 613 613 614 615 616 617 618 618 619 619 620 621 622 623 625 627 629 632 633 634 635 636 638 640 642 644 646 648 649 651 653 654 657
636 633 631 629 626 624 621 618 616 613 611 608 606 603 600 597 595 593 592 592 593 593 594 595 596 597 598 599 600 602 604 606 607 608 608 609 609 610 611 613 613 614 615 616 617 617 618 618 620 622 624 626 628 630 632 633 634 635 637 639 641 643 644 646 648 650 652 654 656
635 633 630 628 625 623 620 617 615 612 610 607 604 601 598 596 594 592 591 591 592 592 593 593 594 595 596 597 598 600 602 603 604 605 606 606 606 607 608 610 611 612 613 614 614 614 615 617 618 620 623 625 627 629 630 631 632 633 636 638 640 642 644 645 647 649 651 654 655
634 632 629 627 624 621 618 616 613 611 608 606 603 600 597 594 593 591 590 590 590 590 590 591 593 594 595 596 597 598 599 601 602 603 603 603 603 604 606 607 608 609 610 611 611 612 613 615 617 619 621 623 625 627 628 628 630 632 635 637 639 641 643 644 647 649 651 653 654
633 631 628 626 623 620 618 615 613 610 607 605 602 600 597 594 591 590 589 588 588 588 588 589 591 592 593 595 596 597 598 598 599 600 601 601 602 603 604 605 605 606 607 608 608 610 612 613 615 618 620 622 624 625 626 627 629 632 634 636 638 640 642 644 646 648 650 651 653
632 630 627 625 622 619 617 614 612 609 606 604 601 599 596 593 590 588 587 586 586 586 587 588 589 590 591 593 594 595 596 596 597 598 598 599 600 601 602 602 603 603 604 605 607 609 611 613 614 617 619 622 623 625 626 627 629 631 633 635 637 638 640 643 644 647 648 650 651
632 629 627 624 621 619 616 613 611 608 605 603 600 598 596 593 590 587 585 585 585 586 586 587 587 588 589 590 591 593 593 594 595 596 597 598 599 599 600 600 601 602 603 604 606 608 611 613 614 617 619 621 622 624 625 627 629 631 633 634 636 638 639 641 643 645 647 649 650
631 628 626 623 621 618 616 613 610 608 605 603 601 598 596 593 590 587 585 584 584 585 586 586 586 586 587 588 589 590 591 592 593 594 595 596 597 598 598 599 600 601 602 604 605 608 611 613 615 617 618 620 621 623 625 627 629 631 632 634 635 637 638 641 643 644 646 648 649
631 628 626 623 621 618 616 613 610 608 606 603 601 598 596 593 591 588 586 584 585 585 585 585 585 586 586 587 587 588 589 590 591 592 593 594 595 596 597 598 599 600 602 604 606 609 611 613 615 617 618 619 621 622 624 626 628 630 632 633 635 636 638 641 642 643 645 647 648
630 628 626 623 621 619 616 614 611 609 606 604 602 599 596 594 592 590 588 587 586 586 586 586 585 586 586 587 587 588 589 590 590 591 592 593 594 595 596 598 599 600 602 604 607 609 611 613 615 617 618 620 621 622 623 625 627 629 631 633 634 636 638 639 640 642 644 646 647
631 628 626 624 622 619 617 614 612 609 607 605 602 600 598 596 595 593 591 590 588 588 587 586 586 586 587 587 588 588 588 589 590 591 591 592 593 595 597 598 599 601 603 605 608 609 611 613 615 617 619 621 621 622 623 624 626 628 630 632 634 635 637 638 638 640 642 644 647
631 629 627 625 623 620 618 616 613 610 608 606 603 602 600 598 597 596 594 593 591 589 588 587 588 588 588 588 588 588 588 589 589 590 591 593 594 595 597 598 600 601 603 606 608 610 611 613 615 618 620 622 623 623 624 624 626 627 629 631 633 635 636 637 637 638 641 644 646
632 630 628 626 624 622 619 617 614 612 609 607 605 603 602 601 599 598 596 595 593 592 590 590 590 590 589 589 589 589 589 589 589 590 591 593 594 595 597 598 600 602 604 606 608 610 611 614 617 619 622 624 625 625 625 625 626 627 628 630 632 634 635 636 637 638 641 644 645
633 631 629 627 625 623 621 618 616 613 611 609 607 606 604 603 602 600 599 598 596 594 593 593 592 592 592 591 591 591 591 590 590 591 592 593 594 596 597 599 601 603 605 607 608 610 612 615 618 621 623 626 626 626 626 626 626 626 628 629 631 632 633 635 636 638 640 642 644
635 633 630 628 627 624 622 620 618 615 613 611 609 608 606 605 604 603 602 601 599 597 596 595 594 594 593 593 593 593 593 593 593 593 594 595 596 598 599 601 602 604 606 607 609 611 613 615 618 621 623 625 626 626 626 626 626 627 627 628 629 631 633 634 636 638 639 641 642
636 634 632 630 628 626 624 622 619 617 615 613 612 610 609 608 607 606 605 603 601 600 598 598 597 596 596 596 596 596 596 596 596 597 598 598 599 600 601 602 604 606 607 608 610 612 614 616 619 621 623 624 625 625 625 626 626 626 627 628 629 631 633 634 636 637 638 640 641
638 635 633 632 630 628 626 623 621 619 618 616 615 613 612 611 609 608 607 605 604 603 601 600 600 599 599 599 599 599 599 599 599 600 600 601 602 603 603 605 606 608 609 611 612 613 615 617 619 621 622 623 623 624 624 625 625 626 627 628 630 631 633 634 635 637 638 639 640
639 637 635 633 631 629 628 626 624 622 620 619 618 616 614 613 612 611 609 608 607 606 605 604 603 603 603 603 603 603 603 603 603 603 603 604 605 605 606 607 609 611 612 613 614 615 617 618 619 620 621 621 622 623 623 624 625 626 628 629 631 632 633 634 636 637 638 638 639
641 639 637 635 633 632 630 628 626 624 623 622 620 618 617 615 614 613 613 611 610 609 608 607 608 608 607 606 605 605 606 606 606 606 607 608 608 609 609 610 612 613 614 615 616 617 618 619 620 620 620 620 621 622 623 624 625 627 628 630 632 633 634 635 636 636 637 637 638
643 640 638 637 635 633 632 630 628 627 626 624 622 621 619 618 618 617 616 614 613 612 611 610 611 611 610 608 608 608 608 609 609 609 610 611 611 612 612 613 614 616 616 617 617 618 619 619 620 620 620 621 622 623 624 625 626 628 630 631 633 634 635 635 636 636 636 637 637
644 642 640 639 637 636 634 633 631 630 628 626 625 624 623 622 621 619 618 617 616 615 614 614 614 613 612 611 611 611 611 612 612 613 613 613 613 614 615 616 617 618 618 618 618 619 619 620 620 620 621 622 623 624 625 626 627 629 631 633 633 634 635 636 636 637 637 637 637